Location: Piotrkow Trybunalski
(51.4000°N, 19.6830°E)
Time: 15:05:35
(UTC+01:00)

Vanguard 2 - Pass Details

Date: 08 February 2023
Orbit: 553 x 2927 km, 32.9° (Epoch: 24 March)

Event Time Altitude Azimuth Distance (km) Brightness Sun altitude
Rises 01:08:16 0° 266° (W) 6,126 - -50.9°
Reaches altitude 10° 01:12:53 10° 256° (WSW) 5,374 - -50.6°
Maximum altitude 01:25:39 28° 206° (SSW) 4,391 - -49.5°
Drops below altitude 10° 01:38:57 10° 156° (SSE) 5,567 - -48.2°
Exits shadow 01:41:41 - 151° (SSE) 5,997 11.9 -48.0°
Sets 01:43:54 0° 146° (SSE) 6,371 12.1 -47.7°
